FENGYUN 1C DEB, 30242

Orbit data source: Space-Track

FENGYUN 1C DEB, 30242 is space debris in SSO originally from a launch on Mon, 10 May 1999 UTC launched from the Taiyaun Space Center, China (TSC). Fengyun 1C debris stems from the Chinese weather satellite Fengyun-1C, which was intentionally destroyed by a Chinese anti-satellite missile in 2007. This event dramatically increased the amount of space debris, with thousands of trackable fragments posing hazards to satellites and human spaceflight. The Fengyun 1C debris cloud has become a focal point in discussions about space sustainability and the need for international regulations to prevent the creation of new debris.

Loading next visibility...
Identifier
30242, 1999-025XB
Orbit
SSO
Country
Flag of CNCN / PRC
Related business
Manufacturer
Unknown
Mission
Spacecraft
Bus & Motor
Unknown
Mass
Unknown
Launch date (UTC)
1999-05-10 (27 years ago)
Launch vehicle
Unknown
Launch site
Taiyaun Space Center, China (TSC)
Object type
Payload
Rocket body
Debris
Shape & HBR
Unknown shape, 0.1 m
Radar Cross Section
Medium (>0.1 m² and <1 m²)

Expand to show TLE details & history
Last TLE update: 19 hours ago

TLE from 19 hours ago
0 FENGYUN 1C DEB
1 30242U 99025XB  26256.32936207  .00000640  00000-0  33216-3 0  9997
2 30242  98.6569 288.9954 0010175 348.5657  25.2162 14.18184299 13158
Epoch: 2026-09-13T07:54Z
TLE epoch observation values (Epoch: 2026-09-13T07:54:16.882Z)
Latitude
13.63839°
Longitude
175.99362°
Altitude
827.036 km
Speed
7.444 km/s
True Right ascension
19h 07m 33s
True Declination
13° 33' 38"
Sunlit
Object was in daylight at epoch
Visualization orbit readout
Latitude
Unknown
Longitude
Unknown
Altitude
Unknown
Speed
Unknown
Apparent Right ascension
Unknown
Apparent Declination
Unknown
Sunlit
N/A
Visualization observer readout
Local Sidereal Time
19:50:09
Azimuth
Unknown
Elevation
Unknown
Doppler factor
Unknown
Orbital elements
Apogee altitude
835.991 km
Perigee altitude
821.325 km
Semi-major axis
7,206.795 km
Eccentricity
0.00102
Inclination
98.6569°
RAAN
288.9954°
Arg. of periapsis
348.5657°
True anomaly
25.26593°
Mean anomaly
25.2162°
Eccentric anomaly
25.24106°
Mean motion
3.54756 °/min
Orbital period
101.48 mins
BSTAR
0.00033216
Loading maneuver chart data...
Computing Atmospheric mass density...
Loading historical data...
Loading historical data...
Loading historical data...
Loading historical data...
Loading historical data...
Loading historical data...
Loading historical data...

Documentation

Showing up to 5 results
|